User: anonymous   Login
Location: Austin, TX
(30.3000°N, 97.7500°W)
Time: 10:55:49
(UTC-06:00)
Language:

Cosmos 2082 Rocket - Orbit

View from above orbital plane
View from above orbital plane
View from above satellite
View from above satellite

Ground track
Ground track

The orbit data is extracted from the following two-line orbital elements,

1 20625U 90046B   16045.53621571  .00000169  00000-0  11241-3 0  9998
2 20625  70.9992  94.6964 0012611 136.3938 325.4941 14.14595729328733
Epoch (UTC): 14 February 2016 12:52:09
Eccentricity: 0.0012611
inclination: 70.9992°
perigee height: 834 km
apogee height: 853 km
right ascension of ascending node: 94.6964°
argument of perigee: 136.3938°
revolutions per day: 14.14595729
mean anomaly at epoch: 325.4941°
orbit number at epoch: 32873

The dashed part of the orbit path shows where the satellite is in the earth's shadow,  

DLR